Location: Olomouc
(49.5830°N, 17.2500°E)
Time: 19:20:16
(UTC+02:00)

ISS - Pass Details

Date: 06 May 2021
Orbit: 417 x 422 km, 51.6° (Epoch: 14 June)

Event Time Altitude Azimuth Distance (km) Brightness Sun altitude
Exits shadow 04:19:15 - 274° (W) 1,808 -1.0 -9.1°
Reaches altitude 10° 04:19:59 10° 276° (W) 1,508 -1.4 -9.0°
Maximum altitude 04:23:20 59° 357° (N) 495 -3.2 -8.6°
Drops below altitude 10° 04:26:42 10° 78° (ENE) 1,511 0.2 -8.1°
Sets 04:28:49 0° 82° (E) 2,377 1.3 -7.9°
